SCP
1 0 0 0 0 0 0 0 0 0 0 0 0 0 0 0 0 0 0 0 0 0 0 0 0 0 0 0 0 0 0 0 0 0 0 0 0 0 0 0 0 0 0
1 1 1 0 0 0 0 0 0 0 0 0 0 0 0 0 0 0 0 0 0 0 0 0 0 0 0 0 0 0 0 0 0 0 0 0 0 0 0 0 0 0 0
1 1 1 1 0 0 0 0 0 0 0 0 0 0 0 0 0 0 0 0 0 0 0 0 0 0 0 0 0 0 0 0 0 0 0 0 0 0 0 0 0 0 0
1 1 1 1 1 1 0 0 0 0 0 0 0 0 0 0 0 0 0 0 0 0 0 0 0 0 0 0 0 0 0 0 0 0 0 0 0 0 0 0 0 0 0
1 1 1 1 1 1 1 0 0 0 0 0 0 0 0 0 0 0 0 0 0 0 0 0 0 0 0 0 0 0 0 0 0 0 0 0 0 0 0 0 0 0 0
1 1 1 1 1 1 1 1 1 1 1 0 0 0 0 0 0 0 0 0 0 0 0 0 0 0 0 0 0 0 0 0 0 0 0 0 0 0 0 0 0 0 0
2 1 1 1 1 1 1 1 1 1 1 1 1 0 0 0 0 0 0 0 0 0 0 0 0 0 0 0 0 0 0 0 0 0 0 0 0 0 0 0 0 0 0
2 1 1 1 1 1 1 1 1 1 1 1 1 1 0 0 0 0 0 0 0 0 0 0 0 0 0 0 0 0 0 0 0 0 0 0 0 0 0 0 0 0 0
1 1 1 1 1 1 1 1 1 1 1 1 1 1 1 0 0 0 0 0 0 0 0 0 0 0 0 0 0 0 0 0 0 0 0 0 0 0 0 0 0 0 0
1 1 1 1 2 2 2 2 2 2 1 1 1 1 1 0 0 0 0 0 0 0 0 0 0 0 0 0 0 0 0 0 0 0 0 0 0 0 0 0 0 0 0
1 1 2 2 2 2 2 2 2 1 1 1 1 1 0 0 0 0 0 0 0 0 0 0 0 0 0 0 0 0 0 0 0 0 0 0 0 0 0 0 0 0 0
1 2 2 2 2 2 2 2 1 1 1 1 1 0 0 0 0 0 0 0 0 0 0 0 0 0 0 0 0 0 0 0 0 0 0 0 0 0 0 0 0 0 0
2 2 2 2 2 2 2 1 1 1 1 1 1 0 0 0 0 0 0 0 0 0 0 0 0 0 0 0 0 0 0 0 0 0 0 0 0 0 0 0 0 0 0
2 2 2 2 2 2 1 1 1 1 1 1 0 0 0 0 0 0 0 0 0 0 0 0 0 0 0 0 0 0 0 0 0 0 0 0 0 0 0 0 0 0 0
2 2 2 2 1 1 1 1 1 1 1 0 0 0 0 0 0 0 0 0 0 0 0 0 0 0 0 0 0 0 0 0 0 0 0 0 0 0 0 0 0 0 0
1 1 1 1 1 1 1 0 0 0 0 0 0 0 0 0 0 0 0 0 0 0 0 0 0 0 0 0 0 0 0 0 0 0 0 0 0 0 0 0 0 0 0
1 1 1 1 1 1 1 0 0 0 0 0 0 0 0 0 0 0 0 0 0 0 0 0 0 0 0 0 0 0 0 0 0 0 0 0 0 0 0 0 0 0 0
1 1 1 1 1 1 1 0 0 0 0 0 0 0 0 0 0 0 0 0 0 0 0 0 0 0 0 0 0 0 0 0 0 0 0 0 0 0 0 0 0 0 0
1 1 1 1 1 1 1 0 0 0 0 0 0 0 0 0 0 0 0 0 0 0 0 0 0 0 0 0 0 0 0 0 0 0 0 0 0 0 0 0 0 0 0
1 1 1 1 1 1 1 1 0 0 0 0 0 0 0 0 0 0 0 0 0 0 0 0 0 0 0 0 0 0 0 0 0 0 0 0 0 0 0 0 0 0 0
1 1 1 1 1 1 1 1 0 0 0 0 0 0 0 0 0 0 0 0 0 0 0 0 0 0 0 0 0 0 0 0 0 0 0 0 0 0 0 0 0 0 0
0 0 0 0 0 0 0 0 0 0 0 0 0 0 0 0 0 0 0 0 0 0 0 0 0 0 0 0 0 0 0 0 0 0 0 0 0 0 0 0 0 0 0
0 0 0 0 0 0 0 0 0 0 0 0 0 0 0 0 0 0 0 0 0 0 0 0 0 0 0 0 0 0 0 0 0 0 0 0 0 0 0 0 0 0 0
0 0 0 0 0 0 0 0 0 0 0 0 0 0 0 0 0 0 0 0 0 0 0 0 0 0 0 0 0 0 0 0 0 0 0 0 0 0 0 0 0 0 0
0 0 0 0 0 0 0 0 0 0 0 0 0 0 0 0 0 0 0 0 0 0 0 0 0 0 0 0 0 0 0 0 0 0 0 0 0 0 0 0 0 0 0
0 0 0 0 0 0 0 0 0 0 0 0 0 0 0 0 0 0 0 0 0 0 0 0 0 0 0 0 0 0 0 0 0 0 0 0 0 0 0 0 0 0 0
Wind_Speed
7 6 5 4 4 4 4 3 3 2 3 3 2 2 2 2 2 2 1 1 1 0 0 1 1 1 1 1 1 2 2 2 3 1 0 1 1 2 1 1 1 1 1
7 6 6 5 4 5 4 4 3 3 3 3 3 2 2 2 2 2 2 1 2 1 1 1 0 1 1 1 2 2 2 2 4 3 1 1 1 2 2 1 1 1 1
7 7 6 5 5 5 5 4 4 4 3 2 3 3 2 2 2 2 2 2 1 1 1 1 0 1 1 1 2 2 2 2 2 4 2 1 1 1 1 1 1 0 1
8 8 7 6 6 6 5 4 4 4 3 3 3 2 2 2 2 2 2 1 1 1 1 1 1 2 2 2 2 2 3 3 3 4 3 2 1 1 2 1 0 0 1
8 8 8 7 6 6 5 5 4 4 4 3 3 2 1 2 1 1 2 2 2 1 0 0 1 2 2 2 2 3 3 3 3 3 3 2 2 2 2 2 2 1 1
9 8 7 7 6 6 6 5 4 4 3 3 3 2 2 1 2 3 3 2 2 2 1 0 1 1 1 2 4 5 5 5 4 3 2 3 3 3 2 2 2 1 2
8 8 7 7 7 7 7 5 5 5 4 3 3 3 2 2 3 3 3 2 2 2 2 1 1 1 1 1 2 3 3 5 6 5 4 4 4 4 4 3 3 3 3
7 7 7 7 7 6 6 6 5 4 4 4 4 4 3 2 3 3 3 2 2 2 2 2 2 0 0 2 2 2 1 1 2 3 4 4 4 4 5 5 4 3 0
6 6 7 8 8 7 7 6 5 5 4 4 4 4 3 2 3 3 4 2 2 1 1 2 2 2 1 4 3 2 1 1 1 2 4 4 5 6 5 3 2 2 1
6 6 6 6 7 7 7 6 4 5 5 4 3 3 4 3 3 4 4 2 2 1 0 0 2 3 3 4 3 3 2 2 1 0 0 1 2 3 5 5 5 4 2
5 5 5 5 6 6 5 4 4 4 4 4 4 3 3 4 3 4 4 3 3 3 2 1 2 3 3 4 3 3 4 3 1 1 0 1 1 1 2 3 4 4 4
4 4 4 5 5 5 5 4 4 5 5 4 3 2 1 2 3 4 5 4 4 3 3 2 2 4 4 3 2 3 3 2 1 1 0 1 2 2 3 3 4 4 4
5 4 4 3 3 4 4 4 4 4 4 4 3 3 2 1 2 4 5 4 5 3 3 4 4 4 3 2 3 3 2 2 1 1 2 3 3 3 2 1 1 1 1
5 4 4 4 3 3 3 3 3 4 3 3 3 3 3 2 2 2 2 2 3 2 1 2 3 3 2 2 2 2 2 3 3 3 3 2 1 1 1 1 1 1 1
5 4 4 4 4 3 2 2 3 3 4 5 4 4 4 4 5 5 4 3 3 3 2 1 0 0 1 1 1 2 2 2 2 2 2 2 2 2 2 1 1 1 2
5 4 3 3 3 3 3 2 3 1 2 4 5 5 3 4 5 7 6 6 5 5 4 2 2 2 3 3 3 3 2 3 3 3 3 3 3 3 3 2 1 2 3
5 4 3 3 4 4 3 3 2 2 3 1 3 5 5 6 7 7 7 6 5 5 3 3 3 4 4 3 3 4 4 4 3 3 3 3 3 3 3 2 2 2 3
4 5 4 4 4 4 4 4 3 3 1 1 1 2 5 7 7 7 6 4 2 2 3 3 4 3 3 3 3 3 3 3 3 3 3 3 3 3 3 3 3 4 4
4 4 4 4 4 4 3 3 3 3 3 2 1 0 2 3 4 4 5 3 3 4 4 4 4 3 3 3 3 3 3 3 3 3 3 4 4 3 3 4 4 5 4
3 5 5 4 3 3 3 3 3 3 3 3 3 3 2 2 2 2 3 3 4 4 4 4 4 4 4 4 4 3 3 3 3 3 3 3 4 4 4 4 4 3 4
2 3 5 3 3 3 4 4 4 4 3 3 3 4 7 4 5 5 4 5 5 5 5 4 4 4 4 4 4 4 4 4 4 4 4 4 4 4 4 4 4 4 4
2 2 3 3 3 3 3 4 4 4 4 4 3 3 7 4 4 4 5 5 5 5 5 5 5 4 4 4 4 4 4 4 4 4 4 4 4 4 4 4 3 3 3
3 2 2 2 2 3 2 2 3 3 3 4 3 3 4 4 4 4 5 5 5 5 4 4 4 4 4 3 3 4 5 5 5 5 4 4 4 3 4 4 4 4 4
3 3 3 2 2 2 2 2 2 3 3 3 3 3 4 5 5 5 5 4 4 4 4 4 5 6 6 4 3 3 4 4 4 4 6 5 4 4 3 3 3 4 4
2 2 3 2 2 2 2 2 2 2 3 3 3 3 4 4 4 5 4 4 4 4 4 4 4 4 6 6 5 4 5 5 4 3 3 4 4 4 3 3 3 3 3
2 2 2 2 2 2 2 2 2 2 2 3 3 3 3 3 4 4 4 4 3 3 4 4 5 6 6 5 6 6 5 5 4 4 3 3 4 4 3 3 4 3 3
Wind_Direction
176 174 165 164 159 152 154 161 159 152 151 159 161 151 144 138 130 126 133 123 115 83 93 127 165 166 161 163 151 149 148 139 147 170 109 137 118 128 110 80 93 89 110
176 167 167 164 160 159 163 168 156 149 151 154 142 133 136 131 128 134 147 131 133 132 123 105 251 128 136 163 156 160 163 154 148 159 153 150 153 161 153 145 144 137 126
167 165 167 168 168 169 169 167 159 154 147 139 137 139 138 131 132 145 150 149 148 154 143 134 162 126 138 155 151 155 158 141 135 149 161 161 132 153 136 159 137 91 159
166 165 171 178 176 174 169 164 161 156 148 139 135 139 143 142 147 157 155 151 149 150 160 146 134 149 171 164 140 141 134 126 130 143 148 152 152 162 138 147 163 240 210
169 174 183 184 175 168 166 167 162 157 155 148 140 135 137 149 164 166 171 163 160 165 147 132 136 144 167 172 156 152 142 140 142 146 157 156 164 163 186 189 189 193 256
174 181 179 175 172 173 174 170 161 157 156 149 153 153 155 164 151 146 145 141 151 155 151 152 106 70 111 169 159 152 154 158 163 164 181 186 200 195 181 176 165 151 240
175 177 176 175 177 181 179 171 169 171 165 164 166 159 164 179 156 149 149 140 145 154 153 155 139 53 70 122 142 141 163 170 168 170 180 200 199 197 177 183 189 188 212
172 176 178 176 179 177 174 178 179 172 174 179 181 177 172 187 167 159 153 139 142 149 156 163 156 173 129 135 129 113 129 215 201 188 195 209 205 196 187 189 196 193 218
177 188 184 179 177 176 180 184 180 174 182 185 179 174 175 192 177 169 151 132 132 135 153 155 159 166 178 148 130 126 96 327 295 196 198 203 199 190 176 147 144 146 204
188 190 180 176 176 180 182 180 179 175 180 175 176 179 178 187 191 172 155 140 149 168 178 184 178 171 166 156 150 150 172 244 261 32 261 225 204 204 188 178 174 173 179
184 171 169 180 181 180 176 175 171 169 166 169 172 184 182 186 189 185 173 158 173 180 191 219 235 188 174 174 171 182 206 205 193 185 216 275 287 244 226 206 190 177 179
159 162 169 178 178 172 169 171 169 167 167 174 174 184 199 194 186 193 187 183 181 177 196 212 221 205 200 196 199 210 197 152 129 128 175 249 241 245 239 222 211 207 201
155 165 168 168 163 161 166 172 172 173 174 180 177 183 194 188 200 200 196 198 190 188 201 198 206 211 216 228 225 213 182 156 159 190 226 239 236 232 222 210 210 213 239
160 166 166 163 162 156 161 167 172 177 180 182 183 188 191 190 193 203 205 198 193 196 215 226 220 221 231 251 246 225 202 193 193 213 228 244 256 228 209 196 198 194 197
166 166 165 164 158 151 148 155 173 189 194 185 190 186 184 206 219 198 186 191 190 193 164 122 98 140 249 261 258 258 237 211 212 220 221 225 224 220 229 211 188 174 190
164 169 168 167 154 151 141 91 44 90 169 180 184 179 197 203 184 181 185 190 189 173 153 171 204 216 224 230 232 240 234 224 222 213 213 215 214 215 223 220 196 192 211
167 170 167 165 162 162 164 166 157 22 38 104 190 191 189 181 175 176 181 184 180 161 171 203 212 219 225 228 229 227 230 228 213 206 213 216 214 214 210 214 212 216 226
164 170 169 177 178 177 179 182 176 169 165 338 325 207 188 183 181 181 173 146 145 180 208 214 220 222 222 224 229 231 234 229 217 218 219 217 212 211 214 215 213 214 221
166 171 174 178 179 176 177 178 176 175 172 173 141 304 196 181 182 185 165 172 195 211 220 223 222 222 225 224 223 220 221 221 223 221 222 216 210 208 219 221 220 225 219
170 177 174 175 178 178 181 182 183 182 186 190 192 191 164 142 183 205 206 217 219 224 223 224 227 229 230 225 219 214 217 224 228 225 227 224 216 210 214 220 220 220 223
171 172 176 179 186 189 187 187 187 188 195 206 213 199 178 185 205 212 214 220 224 226 225 226 229 231 231 226 218 218 218 223 221 223 226 225 221 219 218 216 219 221 224
168 169 173 182 184 185 187 187 189 192 193 196 207 201 193 199 210 216 219 222 226 228 224 221 226 228 224 219 213 212 220 226 228 226 228 228 225 222 216 216 220 221 220
159 155 155 166 169 165 177 184 183 187 192 200 200 199 199 213 220 223 227 228 227 229 229 223 226 232 229 222 212 209 216 225 225 215 214 221 223 223 217 215 216 217 222
153 157 160 164 163 168 180 190 189 193 198 203 203 205 211 214 219 225 229 231 230 232 228 222 219 215 211 214 220 220 223 226 221 214 207 210 215 219 215 218 221 221 220
157 159 166 174 179 188 194 199 202 205 212 214 212 212 219 222 224 229 231 230 228 228 224 218 214 210 208 212 218 223 222 221 223 216 205 203 209 209 206 212 220 230 230
162 167 172 174 180 190 195 203 213 217 221 222 218 217 218 224 232 233 230 226 223 222 220 218 213 210 212 215 218 216 213 215 220 220 208 204 209 211 206 213 222 226 230